Theta_e
352 352 351 349 348 346 344 342 340 339 341 344 347 347 344 344 347 349 349 347 347 351 354 353 351 349 346 344 348 351 350 345 340 339 340 342 343 344 346 347 345 344 345 345 348 351 353 353 353 353 352 351 350 351 352 352 350 348 348 348 349 349 347 345 344 342 340 340 339 338 338 340 343 347 353 356 356 357 351 341 339 344 344 342 342
354 354 355 354 352 351 351 349 345 344 344 347 351 352 349 346 348 350 351 350 348 348 351 353 352 351 349 345 344 345 347 348 344 340 338 339 341 342 345 347 346 344 343 344 346 350 354 355 352 349 348 347 347 347 348 349 350 351 352 351 351 352 351 351 351 350 345 341 340 338 336 337 338 341 349 354 353 350 344 338 340 345 348 348 344
354 354 355 356 355 354 354 353 351 349 347 347 351 354 351 349 350 351 351 352 351 349 349 350 351 352 352 349 346 344 347 349 348 344 340 338 339 340 342 344 346 346 344 343 342 346 352 354 351 348 346 344 344 346 347 348 350 352 351 350 351 351 352 352 354 353 350 343 338 335 333 333 332 332 335 340 342 341 340 339 340 344 349 351 348
353 352 353 356 357 356 355 354 354 355 353 351 352 353 351 350 351 351 351 351 352 350 349 350 350 350 351 352 350 348 349 349 350 349 345 341 339 339 339 340 344 348 348 345 343 342 345 346 345 344 343 342 345 350 351 349 349 350 350 350 350 350 351 351 352 352 350 345 339 334 332 331 329 329 332 336 341 344 344 342 342 344 347 347 347
355 355 355 356 358 358 357 356 356 356 355 353 353 352 350 350 350 350 351 351 351 351 350 350 350 350 350 350 349 350 351 350 350 350 349 347 343 340 340 340 342 346 347 346 344 342 341 341 342 343 342 343 347 351 353 350 347 347 348 349 349 349 349 350 349 347 346 343 339 334 333 334 332 331 336 341 343 345 345 344 344 344 345 345 347
355 356 356 355 356 356 356 356 356 355 354 352 351 350 348 348 349 350 350 350 350 350 350 349 349 350 350 349 347 348 350 349 349 349 350 349 346 342 341 340 342 344 346 345 343 341 339 339 341 343 343 343 345 347 347 347 345 345 347 348 347 348 349 350 350 349 349 348 343 338 335 337 335 333 335 340 341 342 345 347 345 343 345 347 348
353 353 353 354 355 355 354 354 354 354 355 354 350 349 348 346 347 349 350 349 348 348 350 350 349 348 349 349 347 346 346 346 345 347 347 346 344 342 341 340 340 341 343 343 341 339 338 337 339 341 340 339 340 339 338 338 338 341 344 345 347 348 348 348 348 349 349 347 343 339 336 336 336 334 334 336 338 341 346 350 348 344 345 348 349
352 352 352 353 353 353 354 355 354 353 355 355 352 350 348 346 346 347 349 350 347 346 348 349 349 348 347 347 346 345 344 342 341 342 342 340 339 339 340 340 340 340 339 339 339 338 337 336 337 337 336 334 333 333 332 334 336 337 337 338 340 342 342 341 340 340 341 340 337 335 335 335 333 333 333 332 333 335 341 348 348 345 345 349 350
351 351 352 352 352 352 353 353 353 353 354 353 351 349 348 348 347 346 349 351 349 347 346 347 348 348 348 347 346 345 344 341 338 337 337 336 336 336 336 337 338 338 337 337 337 336 336 337 336 335 333 333 334 335 336 339 342 341 339 337 335 335 334 333 333 333 333 332 331 330 331 330 330 330 330 330 330 331 335 343 346 345 346 347 349
350 351 351 352 351 351 352 352 351 352 352 351 351 349 348 349 348 346 349 351 350 348 348 348 348 347 347 346 346 346 345 344 341 337 334 333 333 333 334 335 335 335 335 335 334 334 335 336 337 337 337 339 341 343 343 343 343 342 341 340 339 337 335 333 332 331 330 328 326 326 326 327 327 328 328 328 329 330 334 342 348 349 349 348 348
349 350 351 351 351 351 351 351 351 351 351 351 352 350 349 350 348 347 349 351 349 348 348 348 347 346 346 346 346 345 345 345 344 342 339 335 333 332 331 332 332 333 333 333 333 332 333 334 336 339 342 343 344 344 344 344 343 342 342 341 340 338 337 336 335 334 332 329 326 325 325 325 325 326 326 328 328 328 332 340 347 348 347 347 347
347 348 349 350 350 350 350 350 351 351 351 351 352 352 351 351 350 350 351 352 349 348 347 347 347 346 346 347 348 348 347 345 345 345 344 342 340 338 336 334 333 333 332 331 332 332 332 332 333 336 340 342 343 343 343 342 341 340 340 339 339 338 338 338 338 337 336 333 329 328 326 325 325 325 325 326 326 327 328 331 334 336 338 342 343
345 346 347 348 349 349 349 349 350 350 350 351 352 353 353 353 353 353 353 352 351 348 346 346 347 346 346 346 348 349 350 349 348 347 347 346 345 344 343 340 338 337 335 333 332 332 332 332 332 332 333 336 337 339 340 341 341 341 341 340 340 340 339 339 339 339 338 336 335 332 329 327 327 325 324 324 325 325 325 325 326 328 332 337 338
342 344 345 346 347 348 348 348 349 349 349 350 351 352 352 352 353 353 353 352 352 350 347 347 347 347 346 345 346 347 349 351 351 351 350 349 348 346 346 345 344 342 340 338 336 335 333 332 332 331 330 330 330 332 334 336 339 340 342 342 342 342 342 342 341 341 340 339 338 334 330 329 329 326 324 325 325 326 327 330 330 330 332 335 336
331 337 341 343 345 346 347 348 348 348 349 350 350 351 351 352 352 353 354 353 353 352 350 349 347 347 347 346 345 345 345 347 349 350 351 351 351 349 347 346 346 345 344 343 341 340 338 335 334 334 334 334 332 332 333 334 336 337 338 338 338 339 339 339 339 340 339 338 337 334 330 329 330 329 328 330 331 334 336 339 339 338 339 340 341
318 323 329 336 339 341 343 344 345 346 347 348 349 350 351 351 351 352 353 353 353 353 352 351 350 349 349 348 348 347 346 345 345 346 347 349 351 352 351 349 347 345 344 344 343 343 342 341 339 338 340 341 341 340 340 341 341 342 341 339 337 336 334 334 334 334 334 333 332 332 331 330 331 332 334 337 339 342 346 347 345 345 345 345 345
314 315 317 323 329 332 335 336 339 342 342 342 344 348 350 350 351 351 351 352 352 352 352 352 351 351 351 350 350 349 349 348 347 347 346 346 348 351 353 353 351 349 347 345 344 344 343 343 342 342 342 343 343 343 344 345 346 346 346 344 343 340 335 332 331 330 329 330 330 330 330 330 332 334 336 339 342 345 349 349 347 347 348 348 348
314 314 313 315 317 320 323 325 328 330 332 333 338 344 347 349 349 350 350 351 351 351 352 352 352 351 351 350 350 349 349 349 348 348 348 347 347 347 348 350 352 352 351 350 349 348 347 345 345 345 345 345 345 344 343 343 343 343 342 341 340 337 334 330 329 328 328 330 330 331 332 333 334 336 338 340 342 345 348 349 348 349 351 350 350
314 313 313 312 313 313 315 317 317 318 321 325 329 334 340 344 347 348 348 349 350 350 351 351 352 352 352 351 351 350 349 347 346 345 345 347 347 347 347 347 348 349 350 351 352 351 351 350 349 349 349 349 349 349 348 347 346 343 341 339 336 333 330 329 329 330 331 333 334 335 337 339 341 343 344 344 344 345 346 348 348 351 352 351 350
315 313 311 311 312 312 312 313 314 314 317 318 320 323 328 333 338 342 344 345 347 350 351 351 352 352 352 352 352 351 350 347 345 345 347 349 350 350 350 351 351 351 350 351 352 353 353 352 352 351 352 351 351 351 351 351 350 349 347 346 344 340 336 336 337 338 339 341 342 344 345 346 347 349 350 349 348 346 345 344 345 348 351 351 349
316 313 310 310 311 311 311 312 312 313 314 315 316 317 319 321 324 328 331 334 338 342 345 346 347 347 347 348 349 350 351 349 349 349 350 351 351 351 351 352 353 353 353 352 352 352 353 354 354 354 354 354 353 352 352 352 352 352 351 351 350 348 347 348 348 348 349 349 350 350 351 351 351 352 352 352 351 349 348 346 345 345 347 348 347
312 311 309 309 310 310 310 310 310 311 312 313 314 315 316 316 317 318 321 323 325 327 329 331 331 331 333 337 340 344 347 348 349 350 351 352 352 352 352 352 351 352 353 354 353 352 352 353 354 355 355 355 354 354 353 353 352 353 353 352 352 352 352 353 353 353 353 353 353 354 354 354 354 353 353 353 351 350 350 349 348 347 346 346 346
308 308 308 308 308 309 309 310 310 310 310 311 311 312 313 314 315 315 316 316 317 317 318 319 320 321 323 324 327 331 335 338 342 346 348 351 353 353 353 352 351 351 351 352 353 353 353 352 352 354 355 355 355 355 355 355 355 354 355 355 355 355 355 355 355 355 355 355 355 355 355 355 355 355 354 353 352 351 350 349 349 350 349 349 348
306 306 307 307 308 308 309 309 310 310 310 310 311 311 311 312 313 313 313 315 318 319 321 325 328 329 331 331 332 336 339 341 344 347 348 350 351 352 353 353 352 351 351 352 352 353 354 354 354 354 354 355 355 355 355 356 356 356 357 357 357 356 356 356 356 356 356 356 355 355 356 355 356 355 355 355 354 354 352 350 350 352 353 353 352
307 307 308 307 307 307 308 308 309 310 310 311 311 311 311 312 312 314 317 322 326 329 333 338 342 343 344 344 344 346 347 347 348 349 350 350 350 351 352 353 353 352 352 352 352 352 354 355 355 355 355 355 355 356 356 356 356 356 357 357 357 357 357 356 357 356 356 356 356 355 355 355 355 355 355 356 356 356 355 353 351 351 352 353 355
311 311 310 309 308 308 311 312 312 310 310 310 311 313 316 318 318 320 324 326 328 332 336 340 343 344 346 347 347 348 349 349 349 349 348 350 351 351 351 351 351 353 354 353 353 353 354 355 356 356 355 355 355 355 355 356 355 356 356 356 356 356 357 357 357 357 356 356 355 355 355 355 355 355 355 355 356 356 357 357 355 353 351 350 350
314 313 312 310 310 311 314 316 317 317 316 317 318 319 321 323 323 325 326 325 327 333 338 340 342 345 347 347 347 346 344 343 342 338 334 334 339 345 350 352 351 352 353 353 354 354 354 355 355 356 356 356 356 356 356 356 355 356 356 356 356 355 356 356 356 356 356 356 355 355 355 355 355 354 354 355 355 356 356 357 358 357 355 351 348
313 313 312 312 312 314 316 318 320 321 321 321 320 321 322 324 324 325 325 324 325 330 334 337 339 341 342 343 343 341 337 332 327 322 317 317 321 328 338 346 350 352 353 353 353 354 355 356 356 356 356 357 357 357 357 357 356 356 356 356 356 356 356 355 355 355 355 354 355 355 355 355 355 354 354 354 354 355 356 357 357 356 356 354 351
313 313 313 313 313 315 316 316 317 317 317 316 315 316 317 320 322 324 324 324 325 327 329 332 335 337 339 339 337 333 327 321 317 315 314 314 315 316 321 328 336 345 351 354 354 354 353 354 355 356 356 356 357 357 358 357 357 356 355 355 357 358 357 356 356 356 355 355 355 355 355 355 355 354 354 354 355 356 355 355 355 354 353 353 352
313 313 313 313 314 315 315 314 314 314 314 313 312 311 311 312 314 316 318 319 320 320 321 324 327 329 331 330 324 319 317 316 315 314 314 314 314 315 316 317 320 327 336 343 350 353 355 355 354 354 354 353 354 355 356 357 357 356 356 356 357 356 355 354 355 355 355 355 355 355 355 355 355 355 355 355 356 356 356 355 355 354 353 353 352
313 313 313 313 314 314 314 314 314 314 314 314 313 312 310 309 309 310 311 312 313 313 314 316 317 318 318 318 317 317 317 317 316 317 317 316 315 315 315 316 317 319 322 327 333 340 346 350 352 353 354 354 354 354 355 356 356 356 356 356 356 356 354 353 354 355 356 356 356 356 356 356 357 357 357 357 357 357 357 357 356 355 354 353 352
313 313 312 312 312 312 312 313 313 312 312 312 312 311 311 310 309 308 309 310 311 312 313 314 316 318 319 320 320 320 318 317 320 324 324 320 316 315 313 313 315 317 320 322 323 326 331 336 340 344 347 350 352 353 355 356 356 356 356 356 357 357 356 355 356 356 357 357 356 357 357 357 357 357 357 357 356 356 356 357 356 356 355 355 354
312 312 311 311 312 313 313 314 314 314 313 313 312 313 312 312 312 311 309 309 309 311 312 313 315 317 318 318 320 323 326 328 329 330 328 322 316 313 313 313 313 315 317 320 321 323 325 328 330 333 337 340 342 346 349 351 352 354 355 356 357 357 357 357 357 357 357 357 356 356 356 356 355 355 355 355 355 355 356 357 357 357 356 355 355
311 311 311 312 313 314 314 314 315 315 315 315 316 316 316 315 315 315 314 313 312 311 312 315 318 320 320 320 320 323 328 330 328 326 326 324 318 314 313 313 314 315 316 316 318 320 322 324 325 327 329 332 334 336 338 341 344 346 349 351 353 355 355 356 356 356 356 357 356 356 354 352 350 352 353 354 354 355 357 357 357 357 357 356 356
310 310 310 311 312 313 313 313 313 314 314 315 316 316 316 316 316 317 317 318 319 320 319 318 319 320 320 321 320 319 320 320 319 320 323 323 319 317 316 314 314 315 317 318 318 320 321 323 325 326 328 329 332 334 336 337 339 341 343 345 347 350 352 354 355 356 357 357 355 352 348 346 349 352 353 353 354 355 356 357 357 356 356 356 356
309 309 309 309 310 311 311 311 312 312 312 313 313 313 314 314 315 316 318 319 320 320 320 319 317 316 316 317 320 320 320 319 318 318 318 319 321 323 323 320 319 320 320 320 320 324 327 330 332 333 334 334 335 338 340 342 343 344 344 345 346 347 348 350 351 352 353 352 349 346 346 348 352 354 354 353 354 354 355 355 355 355 355 355 356
309 308 308 308 309 310 311 311 311 311 311 312 313 313 313 313 314 315 316 318 319 319 320 320 321 320 320 320 321 321 322 322 322 321 321 324 328 331 330 327 325 326 327 329 333 338 341 343 343 343 342 342 341 342 344 345 347 349 349 350 351 351 351 351 351 350 350 348 347 348 350 352 353 354 354 354 354 354 353 352 353 353 354 354 355
308 308 308 308 309 311 311 311 311 311 311 312 314 315 315 314 314 314 315 316 318 319 321 322 324 324 325 325 324 324 326 329 331 331 331 332 334 335 335 334 333 335 337 341 344 345 346 345 343 341 340 339 340 342 346 348 350 351 352 353 353 353 354 355 355 355 354 353 352 352 353 352 351 350 352 354 355 354 354 353 352 352 353 353 353
307 308 309 309 310 310 310 311 310 310 311 312 314 315 316 315 315 315 315 315 315 316 317 319 321 324 325 326 326 326 328 330 330 330 331 332 332 334 336 337 339 341 342 343 343 342 339 336 334 332 334 336 338 342 348 353 354 353 355 355 355 355 355 356 358 358 357 356 356 355 353 351 350 350 352 354 355 355 355 355 355 354 354 354 354
307 308 309 309 309 309 310 310 310 310 310 311 313 315 316 316 316 316 316 315 315 316 316 316 317 319 322 324 326 326 326 327 328 328 329 331 332 334 336 337 337 335 334 334 335 334 331 329 331 336 339 341 342 344 348 352 353 354 356 357 357 357 357 358 359 359 359 357 356 355 353 352 353 354 356 356 357 357 357 357 357 357 356 355 355
307 308 308 307 307 308 309 309 309 310 311 311 312 313 314 316 317 317 317 316 316 316 316 317 317 317 318 320 322 323 324 326 327 327 326 326 326 327 330 331 329 327 326 327 328 327 325 326 332 340 344 345 344 344 343 343 344 347 351 354 356 357 357 358 357 356 355 356 355 353 353 354 355 356 356 357 358 358 358 357 358 358 356 354 353
306 306 306 306 307 307 308 309 310 310 311 311 312 312 313 314 315 316 316 317 317 316 316 317 318 318 319 320 320 320 322 323 323 323 323 325 326 326 327 328 328 327 326 325 324 324 323 324 329 335 340 342 343 343 341 338 337 338 342 347 352 354 355 355 354 351 350 353 355 355 355 356 357 357 356 356 357 358 358 359 358 356 354 353 353
305 305 306 306 307 308 308 309 309 310 310 310 311 311 311 312 313 314 315 316 317 317 317 317 318 319 320 320 320 322 323 325 325 324 325 327 327 327 327 328 327 325 323 323 324 325 327 328 330 332 334 337 338 339 339 338 337 336 337 341 346 350 351 352 352 349 347 349 352 354 356 357 357 357 357 357 357 357 358 358 358 356 355 355 354
305 305 305 306 307 307 307 308 308 309 309 310 310 310 311 311 312 313 315 315 316 317 317 318 318 318 319 320 321 323 325 327 327 327 327 327 326 326 327 328 327 325 323 323 326 327 329 330 331 331 332 333 334 335 335 336 336 336 336 337 340 344 347 348 349 349 349 348 348 350 352 353 354 355 356 357 357 357 357 357 357 357 357 357 356
305 305 305 306 306 306 306 307 307 308 308 309 309 309 310 311 311 313 314 315 316 316 316 317 318 318 318 319 320 321 323 323 324 324 326 327 328 328 327 326 325 323 321 322 324 326 327 328 328 328 329 330 331 332 333 333 334 335 336 336 337 339 342 344 345 346 348 349 350 350 350 350 351 352 353 354 355 355 356 356 356 356 356 356 356
304 304 304 304 304 304 305 306 306 307 307 307 307 308 309 310 311 312 314 315 315 316 316 317 317 318 318 318 318 319 319 320 321 322 325 326 327 327 325 324 322 321 320 320 322 324 324 325 325 326 327 329 330 330 331 331 332 333 334 335 337 337 339 340 341 341 342 345 347 348 349 350 350 351 351 352 352 353 354 353 353 354 354 354 354
303 303 303 303 303 304 304 305 305 306 306 307 307 308 309 309 310 311 312 314 315 315 315 316 316 317 317 318 318 320 320 320 321 322 324 324 324 324 323 322 321 321 320 320 322 323 323 324 325 326 327 328 328 329 330 330 332 333 334 334 335 336 337 338 338 339 340 341 343 345 347 349 349 349 349 350 351 352 352 351 351 351 352 352 352
301 301 302 302 303 304 304 305 305 305 306 306 307 308 308 309 310 311 312 313 313 314 315 316 316 317 317 317 317 319 320 321 321 321 321 321 322 322 322 321 320 320 320 320 321 322 323 324 325 326 326 327 328 328 329 329 331 332 334 335 335 335 336 337 338 339 340 341 342 343 345 347 348 348 348 347 349 350 351 351 351 350 350 350 350
300 301 302 302 303 303 304 304 304 305 305 306 307 307 308 309 311 312 312 312 313 313 314 316 317 317 317 317 317 319 320 321 321 320 320 320 321 321 321 320 320 320 319 319 320 320 321 322 323 324 325 325 326 327 328 329 330 330 332 333 334 335 336 337 339 340 341 342 342 342 343 344 345 345 346 347 348 348 349 349 349 350 350 349 349
300 301 302 302 303 303 303 304 304 304 305 306 306 307 308 310 311 312 313 313 314 314 315 317 318 318 318 318 318 319 321 321 321 321 320 320 320 320 319 319 318 318 318 318 318 319 319 320 321 322 323 324 325 326 327 329 329 330 331 332 334 335 336 337 339 340 341 342 343 343 343 343 343 344 345 346 346 346 346 346 346 346 346 346 345
300 300 301 301 302 302 302 303 303 304 305 306 307 308 309 310 311 312 313 313 314 314 315 316 317 318 318 318 318 318 319 319 319 319 319 318 318 318 317 317 317 317 318 318 318 318 319 319 320 322 323 324 325 326 327 328 329 330 332 333 334 335 336 337 339 340 342 342 342 342 342 342 341 342 343 343 343 343 343 342 342 342 341 341 341
Wind_Speed
23 23 22 21 21 21 20 19 19 19 18 18 18 18 18 18 18 18 17 17 17 17 16 14 13 12 12 13 13 13 12 10 10 11 10 10 10 10 10 9 9 9 9 8 9 10 9 8 9 9 9 9 9 11 12 9 4 2 4 6 6 6 5 7 8 8 7 8 9 8 8 8 8 8 8 10 11 14 18 17 13 11 12 12 12
24 23 22 22 23 22 21 19 19 19 18 18 18 19 19 18 18 18 17 17 17 17 18 17 15 13 11 12 13 14 13 11 10 11 11 11 11 11 11 10 10 10 9 9 10 10 9 9 9 9 9 9 8 8 10 10 6 5 7 9 9 7 7 8 10 11 10 9 9 10 9 9 10 10 10 12 13 16 17 14 12 12 13 13 13
25 24 23 24 25 25 23 20 19 19 18 18 18 19 20 18 18 18 18 18 17 17 18 18 18 16 13 12 13 13 13 12 11 11 11 12 12 12 12 11 9 9 9 9 10 10 11 11 10 9 9 9 7 5 6 8 9 8 8 7 8 7 8 10 10 12 13 13 12 12 11 11 11 11 11 12 12 13 12 12 13 12 12 14 15
24 24 25 26 26 25 25 23 21 20 20 19 19 17 18 18 19 19 17 18 18 17 17 18 18 18 17 15 14 13 14 14 13 13 12 12 12 12 12 12 11 10 9 10 10 10 11 11 11 10 9 9 8 6 7 9 10 12 11 9 8 9 10 11 11 12 16 18 17 15 14 13 12 11 10 9 9 10 13 15 14 12 11 13 13
22 23 26 27 24 21 21 21 22 21 20 20 19 17 17 17 17 19 19 19 20 19 18 19 19 18 18 19 17 15 15 15 15 15 14 14 14 13 12 13 13 13 12 12 12 12 12 12 11 11 10 10 9 9 11 12 11 12 13 12 12 12 12 13 14 15 17 18 17 15 14 13 12 11 10 10 11 13 15 15 13 12 12 11 10
19 21 23 25 24 22 18 17 18 20 19 19 19 19 19 18 16 18 20 20 21 21 20 20 20 19 18 18 18 18 19 18 17 16 16 16 16 15 14 14 14 15 15 14 14 14 14 13 12 12 12 12 12 12 13 14 12 11 11 12 13 13 13 14 15 15 16 17 18 17 16 15 14 13 12 13 15 15 14 13 12 13 13 13 12
16 17 18 20 23 23 20 19 19 20 19 20 21 21 22 21 18 17 20 22 20 21 22 21 20 20 19 18 18 18 20 20 20 19 19 18 17 16 16 15 14 15 16 17 16 16 15 14 14 14 13 13 13 12 12 12 12 11 12 12 12 13 14 15 16 16 17 18 19 18 17 17 17 17 16 16 16 14 12 13 14 14 13 14 14
10 10 10 14 17 18 18 19 20 19 18 19 20 22 22 22 20 17 18 23 22 19 21 23 21 20 19 19 19 19 19 20 21 22 22 21 19 18 17 16 16 15 16 17 17 17 16 15 15 15 15 14 14 13 12 11 11 12 13 13 13 14 15 15 16 16 17 18 18 18 18 19 19 19 18 17 17 15 13 14 16 16 14 14 14
8 8 8 9 10 12 14 16 16 17 19 19 20 21 22 22 22 18 15 21 25 21 19 22 22 21 20 19 19 19 19 19 20 21 22 22 21 20 19 18 18 18 18 17 17 17 17 16 17 17 16 15 13 12 11 11 13 14 15 15 15 15 16 16 17 17 18 19 20 20 20 21 21 20 20 19 19 18 17 16 17 17 17 17 15
5 8 9 8 6 8 11 13 13 13 14 15 17 21 21 20 23 23 16 18 26 26 22 23 23 22 22 21 20 19 19 19 19 20 21 21 21 20 20 20 20 20 20 20 20 19 18 17 17 16 16 16 15 15 15 15 16 18 18 18 18 19 19 20 20 21 22 23 23 23 23 24 23 22 22 21 20 20 20 18 17 17 18 19 18
4 6 7 6 5 5 7 9 9 8 8 9 12 17 20 20 22 26 23 19 23 27 25 24 24 24 23 23 22 22 20 19 19 19 20 21 21 21 21 21 21 22 23 23 22 21 20 19 18 18 17 17 18 19 20 20 20 20 21 22 22 23 23 23 23 23 24 25 25 25 26 26 25 24 24 24 23 23 23 21 20 20 21 22 22
4 5 5 5 5 6 7 8 7 7 8 9 9 12 18 21 22 25 26 23 22 24 25 24 25 25 22 21 22 24 24 22 20 19 18 19 20 22 22 21 21 23 23 24 24 23 22 22 21 21 21 20 20 20 21 21 21 22 23 24 24 24 24 24 23 24 24 25 26 26 27 28 28 27 27 26 26 26 26 25 25 26 26 25 26
3 4 5 7 8 9 10 10 10 10 11 10 10 11 15 20 23 25 26 26 24 24 25 24 25 26 24 22 21 23 23 23 23 22 21 20 19 20 21 22 22 22 23 24 25 25 25 24 24 24 24 23 23 23 22 22 22 22 23 24 25 25 25 25 25 26 26 27 28 29 29 29 30 29 28 29 30 30 31 30 30 30 29 29 30
2 2 3 5 8 10 12 12 11 11 11 11 12 13 14 18 22 24 26 27 26 26 26 26 25 26 27 26 25 24 22 21 19 19 21 22 23 23 23 23 23 23 23 24 24 25 26 26 27 26 26 25 25 25 25 25 25 25 24 25 25 26 26 26 27 28 29 30 32 33 31 31 31 30 28 28 31 31 30 30 30 30 30 30 30
9 5 2 1 3 6 9 12 12 10 9 12 14 15 16 17 19 21 23 25 26 27 28 28 28 27 27 28 29 29 28 25 22 20 19 20 22 25 27 29 28 27 26 25 25 25 26 27 28 28 27 27 26 26 26 26 26 27 27 28 28 28 29 29 29 30 32 33 34 35 33 31 29 28 26 25 26 26 25 26 27 27 28 27 27
15 12 8 4 2 1 2 6 9 9 10 13 15 16 17 17 18 20 21 22 23 25 26 28 29 29 29 29 30 31 31 31 29 28 26 24 22 22 25 28 31 32 31 30 28 28 27 27 28 28 29 29 28 27 26 26 26 28 29 30 31 32 33 32 32 32 34 35 35 35 34 32 30 28 26 24 24 23 22 24 25 25 26 27 27
15 15 13 10 6 4 3 1 3 7 9 10 12 16 16 16 18 19 20 21 22 22 23 25 27 28 29 30 30 31 31 30 31 32 32 32 30 27 25 25 27 30 32 32 31 31 30 29 29 30 30 31 30 29 28 27 27 29 30 32 34 36 37 37 36 36 37 37 37 36 36 35 33 31 29 27 25 23 23 25 26 25 25 27 27
11 12 12 11 10 8 6 5 3 1 4 4 6 11 14 15 16 16 17 18 20 21 21 22 24 25 27 28 29 29 28 29 29 30 31 33 35 36 35 33 31 29 29 30 31 31 32 32 31 31 32 32 33 33 33 33 34 35 36 37 39 42 42 42 41 41 40 39 39 38 37 36 35 33 31 29 26 24 25 27 26 25 26 28 28
9 9 9 9 8 8 7 6 5 4 4 4 4 6 8 11 13 14 15 15 17 19 20 20 21 21 22 23 24 25 27 28 28 28 28 29 32 35 38 39 38 35 33 33 32 32 33 34 34 34 35 35 35 35 34 34 35 38 40 42 44 46 44 43 43 42 41 40 39 39 37 36 35 33 31 28 25 24 26 27 26 27 28 29 29
8 8 8 7 6 6 7 6 6 6 6 6 6 6 6 6 9 11 12 13 13 15 17 19 19 19 19 18 19 23 28 30 29 27 25 26 28 31 33 35 35 36 35 35 35 34 35 36 36 35 36 36 35 34 32 31 32 33 34 37 41 41 40 39 39 39 39 38 37 37 36 34 33 32 30 28 27 26 27 28 28 28 29 30 30
7 9 10 9 7 6 6 7 8 8 7 8 8 7 6 6 6 7 8 10 11 12 13 15 16 17 17 17 18 22 26 27 26 25 24 25 26 28 30 31 32 32 33 34 35 36 36 35 34 33 33 32 32 31 30 29 29 30 31 32 34 34 33 33 33 33 33 34 34 34 34 33 33 32 31 30 30 30 30 30 30 29 29 30 31
8 10 11 10 9 8 7 7 8 9 9 10 11 10 9 9 8 8 8 9 9 10 11 12 14 15 15 15 16 20 22 21 21 22 23 25 27 27 28 29 30 30 30 31 32 34 34 34 33 31 29 29 28 28 28 27 27 28 29 30 30 29 28 28 28 28 29 31 31 32 32 32 33 33 33 33 33 33 33 32 31 31 30 30 30
10 11 12 12 11 11 10 10 9 9 10 10 12 12 12 12 12 11 11 11 12 12 11 12 13 13 12 11 12 15 16 15 15 16 19 23 26 26 27 27 28 29 30 31 31 30 30 31 31 29 27 27 27 27 26 25 25 26 27 27 27 26 26 26 27 28 29 29 30 31 31 31 32 32 32 32 32 32 34 34 33 32 31 30 30
10 11 12 12 12 12 12 11 11 11 10 10 11 12 12 13 13 13 12 13 13 13 13 12 11 10 9 7 7 8 9 10 10 12 16 20 23 25 26 27 27 28 29 31 31 30 28 28 29 28 28 28 29 29 27 26 26 26 27 27 27 27 27 28 29 30 30 31 31 32 32 32 32 32 31 30 29 30 32 33 34 33 31 30 30
11 11 11 12 13 13 13 12 12 12 12 12 12 12 12 12 12 11 10 10 11 13 13 12 10 10 9 8 7 7 8 9 10 13 15 18 21 24 27 27 27 27 28 30 31 31 29 28 28 29 29 30 31 31 30 29 28 29 29 30 30 30 30 31 31 32 33 34 34 35 35 33 32 32 31 31 31 30 30 31 32 33 34 33 33
10 11 11 12 12 13 13 12 12 12 12 12 12 12 12 12 11 10 9 10 12 13 15 15 15 13 12 10 11 11 11 11 12 13 15 17 18 20 24 27 27 26 26 26 28 29 30 30 30 31 31 31 33 34 34 34 34 34 33 33 32 32 32 33 34 35 36 37 38 38 37 36 34 34 33 33 33 32 31 30 31 32 33 35 37
10 11 11 12 12 11 11 11 12 12 12 11 11 11 11 11 12 11 11 13 13 11 11 12 13 12 12 12 13 14 15 15 15 16 19 21 20 20 22 24 26 27 27 27 27 28 29 30 31 32 33 34 35 36 38 39 39 39 38 37 37 36 35 35 35 36 38 39 40 40 40 39 38 37 35 35 35 34 33 33 33 33 32 32 35
11 11 11 11 10 9 9 9 9 9 10 10 11 11 11 12 13 13 12 14 15 14 12 13 13 14 14 16 17 19 20 22 23 24 25 24 23 22 22 23 24 26 27 28 28 28 29 29 30 31 33 35 37 38 39 40 41 40 39 39 39 39 39 39 38 40 41 42 41 42 42 42 42 40 38 38 37 34 32 32 32 32 31 31 34
12 12 12 11 11 10 10 10 11 12 13 14 15 15 15 15 16 17 16 16 17 19 20 20 20 20 21 22 23 27 30 30 28 26 25 24 24 24 24 24 25 26 26 27 28 29 30 31 32 32 32 34 36 38 39 40 41 41 40 40 40 40 38 38 39 40 41 41 42 43 43 44 43 42 39 38 35 30 28 28 28 28 29 31 34
13 14 13 12 12 12 13 14 14 15 17 18 19 20 20 19 20 21 22 21 21 22 24 26 27 28 29 31 32 33 34 31 27 24 24 24 24 24 25 25 26 27 28 28 29 31 32 33 33 34 34 36 37 38 38 39 40 40 40 39 38 36 34 34 34 33 32 33 35 36 36 36 36 35 34 34 30 26 24 25 26 27 29 31 34
14 15 14 14 14 14 15 16 16 17 18 19 21 23 24 24 23 23 23 24 24 23 24 26 27 28 30 32 32 31 29 27 26 24 23 22 23 23 24 24 24 25 27 30 32 34 34 34 35 35 35 36 38 38 38 38 39 39 39 38 36 35 34 34 32 28 26 26 26 26 27 28 29 30 30 30 29 27 27 27 28 29 30 32 34
15 16 17 17 17 17 17 18 19 19 20 21 22 23 26 28 28 27 26 25 24 24 23 24 24 24 24 26 27 28 28 27 25 22 21 22 23 24 24 24 24 24 25 28 32 34 34 35 37 38 38 40 40 39 39 40 39 38 38 37 36 35 34 33 29 26 25 25 25 26 27 29 31 32 32 31 31 30 29 30 31 31 32 33 33
17 17 17 17 17 18 18 18 20 21 21 21 22 23 24 27 29 30 30 29 27 26 25 24 24 25 25 25 24 24 23 22 21 21 22 24 25 25 25 25 25 25 26 28 31 32 32 33 35 36 38 41 42 42 42 43 43 42 40 39 37 35 33 31 29 28 28 29 28 29 30 32 33 33 33 31 31 31 31 32 33 33 34 34 33
18 19 18 17 17 17 17 18 19 19 19 19 20 22 23 25 27 30 32 32 32 30 28 26 25 25 25 24 23 22 23 23 23 24 26 26 26 25 27 28 28 26 27 28 30 31 31 33 34 34 36 38 40 41 41 42 43 43 42 40 39 36 34 33 32 32 32 31 29 29 32 34 35 35 35 34 33 34 34 35 35 35 35 34 33
20 20 19 18 19 19 20 20 21 20 20 20 20 22 23 24 26 28 29 30 31 32 32 31 28 27 27 26 26 27 27 28 27 26 26 27 26 25 26 29 29 27 26 27 28 29 30 31 33 33 35 36 38 38 39 38 38 39 40 39 38 37 36 36 35 35 33 32 31 32 34 35 35 35 36 37 37 37 37 36 35 35 35 34 34
21 21 20 21 21 22 23 23 24 24 24 24 24 25 26 26 27 27 28 29 31 32 34 34 33 32 31 29 28 28 27 26 26 26 26 27 26 25 26 28 28 27 25 25 26 27 28 29 30 30 31 32 33 33 33 33 33 33 34 34 35 35 36 37 37 37 36 36 36 37 36 35 34 33 35 37 37 37 36 35 36 37 36 35 35
22 22 22 22 22 22 23 24 25 26 26 26 26 26 26 27 27 27 28 29 30 31 31 32 31 31 31 29 28 27 25 23 23 24 24 24 24 24 24 25 25 25 25 24 24 25 25 25 26 27 27 27 28 29 29 30 30 29 29 29 29 30 31 31 33 36 37 37 37 36 35 35 34 32 33 34 34 34 34 33 35 37 37 36 36
22 23 23 23 23 24 25 26 26 26 26 26 26 25 25 26 26 27 28 29 29 29 29 29 28 28 30 29 26 22 19 18 18 18 18 19 20 22 22 24 25 26 25 23 23 24 24 25 26 27 28 28 29 30 30 30 31 31 31 30 29 29 28 27 28 30 31 32 32 31 31 32 32 32 34 34 33 33 33 33 35 38 39 37 37
23 23 23 22 22 24 26 27 28 27 27 27 27 26 26 26 27 28 29 30 31 32 32 32 30 28 27 26 25 22 21 22 24 23 22 21 22 23 23 23 24 24 24 23 24 25 27 29 29 29 29 29 29 29 28 28 28 29 30 31 30 30 29 29 29 30 31 31 31 29 28 30 31 32 34 37 36 35 35 35 36 39 40 40 40
23 24 24 24 24 25 27 29 29 29 28 28 27 27 27 28 29 30 30 31 32 33 33 33 34 33 29 24 22 23 24 26 26 25 24 24 24 24 25 25 25 26 27 29 30 32 33 32 30 29 27 27 27 27 27 27 27 27 28 28 28 29 29 30 31 32 30 27 25 25 27 30 31 30 32 36 37 37 36 37 39 39 40 41 40
24 25 26 27 27 27 28 29 29 29 29 29 29 29 29 29 29 30 31 32 33 34 33 34 35 35 32 29 27 27 29 30 29 28 28 29 29 30 31 32 33 34 35 36 37 37 37 34 31 30 29 29 31 32 32 32 33 34 33 30 29 29 29 29 30 28 24 20 21 24 27 28 28 28 29 32 34 34 35 37 38 39 39 38 36
25 26 27 28 28 27 27 28 29 29 30 31 31 31 30 30 30 31 33 34 34 34 34 35 35 34 33 31 29 28 30 32 32 33 34 34 33 33 34 34 35 36 38 38 39 39 39 37 36 35 35 36 37 38 38 37 37 38 38 37 35 33 32 30 28 24 18 15 18 24 27 27 28 28 29 31 32 32 33 35 36 37 36 35 34
25 25 26 27 26 26 26 27 28 30 31 31 32 32 32 32 32 32 33 34 34 34 34 35 35 35 34 32 30 29 29 30 31 33 35 36 37 37 36 35 35 36 36 36 36 37 38 38 37 37 39 40 41 42 42 41 40 40 40 40 40 40 39 38 35 28 18 11 12 15 20 24 26 28 30 32 33 32 32 33 34 36 36 35 35
24 25 25 26 25 26 27 28 29 30 31 31 32 32 33 33 34 34 34 34 35 36 36 36 36 36 35 34 32 31 30 29 29 31 34 36 37 37 35 34 33 33 34 36 36 36 37 39 39 39 40 41 41 43 43 43 43 43 43 42 42 42 42 42 42 38 32 24 18 15 16 18 21 24 28 30 31 30 31 32 35 36 36 36 36
23 25 26 27 28 29 29 29 29 29 30 31 32 33 33 34 35 35 35 34 35 35 36 37 37 37 38 38 38 37 36 36 35 35 35 34 33 33 32 33 33 34 37 40 41 41 42 44 44 44 44 43 43 43 43 43 43 44 44 44 44 44 43 43 43 43 42 40 36 31 26 22 21 23 25 26 27 28 29 31 33 33 34 34 34
24 26 27 29 30 30 29 28 28 29 30 31 32 33 34 34 35 36 35 34 34 34 35 37 39 39 39 39 39 39 39 41 41 39 37 34 32 32 33 34 35 36 39 41 42 44 45 46 45 44 43 43 42 42 43 43 43 43 44 45 45 44 44 44 44 44 44 43 43 42 39 34 30 28 29 29 29 29 30 31 32 33 34 34 34
26 27 28 28 28 27 26 26 27 27 28 30 31 32 33 33 34 35 37 37 35 34 35 36 39 40 40 39 37 36 37 38 38 37 35 33 32 33 34 36 37 38 40 41 42 43 44 43 41 40 40 40 40 41 41 42 42 42 44 45 46 46 46 45 44 43 42 41 41 41 40 37 34 33 32 32 32 31 30 31 32 33 35 37 37
24 24 24 23 23 23 24 26 27 28 29 31 32 33 33 33 32 33 35 37 37 37 36 36 36 38 39 38 37 37 38 38 37 35 34 34 34 35 37 38 39 41 42 43 44 43 41 39 37 36 36 37 38 39 39 39 40 40 41 43 45 46 46 45 43 40 38 37 37 37 36 35 34 33 32 33 32 30 29 29 30 30 31 33 35
20 20 20 20 21 23 24 26 28 29 31 32 32 33 33 32 30 30 30 32 35 37 37 36 36 35 34 34 36 38 39 38 36 34 33 34 36 37 38 38 39 40 41 42 43 41 39 36 35 34 35 35 36 36 36 37 37 37 38 38 39 40 40 39 38 36 35 35 35 35 35 35 34 34 34 34 32 31 29 29 30 30 31 31 32
17 17 18 19 21 22 23 25 26 27 28 29 30 31 31 31 30 29 28 28 30 32 32 32 32 32 32 31 33 35 35 33 32 32 33 34 35 36 38 38 39 39 39 39 39 38 36 34 33 33 34 34 34 34 34 34 35 35 35 35 34 34 34 34 33 33 33 33 32 32 31 31 31 32 31 30 29 29 28 28 29 29 29 29 29
15 16 17 18 19 21 22 24 25 25 25 25 26 27 27 26 26 26 26 26 28 28 26 25 24 25 24 24 25 26 27 27 28 30 32 33 34 36 37 37 36 36 36 35 35 35 34 33 32 33 33 34 34 33 33 33 34 34 34 33 32 32 32 31 31 31 30 30 29 28 27 25 24 25 25 24 25 26 26 26 25 25 24 23 23
Wind_Direction
207 207 209 212 216 218 219 220 219 220 219 218 221 228 232 228 222 219 218 218 212 205 216 231 234 231 226 221 221 228 232 226 223 222 215 213 212 211 210 203 198 199 201 206 203 194 196 212 225 230 233 230 218 215 221 226 234 265 292 305 316 318 298 274 279 283 268 265 271 275 281 277 272 277 285 289 292 300 309 316 326 332 330 330 327
209 209 210 212 215 214 217 219 218 219 217 214 217 229 237 233 228 225 219 221 222 213 212 221 231 233 230 227 225 228 234 236 234 230 224 220 217 216 219 216 210 208 206 212 216 208 204 213 225 230 233 239 235 230 229 219 215 264 292 292 288 294 301 295 295 295 288 280 280 283 289 290 286 285 285 283 286 294 302 313 325 327 325 325 324
212 213 212 216 219 215 213 217 220 221 219 214 215 228 240 237 230 229 225 224 229 226 219 218 225 230 233 235 229 224 231 238 243 246 240 232 226 222 229 230 224 225 225 224 223 220 219 224 229 230 234 241 239 245 245 219 213 241 264 275 278 275 281 283 282 286 290 293 295 297 298 297 294 296 295 290 294 304 316 330 333 325 317 312 314
218 219 217 217 219 217 213 214 221 224 221 216 213 220 238 243 239 236 230 227 232 233 229 225 226 228 228 233 234 226 227 233 241 252 254 249 238 228 231 236 235 240 245 243 240 233 231 235 238 239 238 236 233 249 266 248 227 227 233 247 266 265 263 266 269 277 284 289 294 299 304 304 302 306 309 310 319 329 333 337 339 335 325 312 304
219 222 223 221 220 223 222 217 219 224 224 222 220 214 217 229 243 245 236 229 231 234 234 231 232 232 228 229 231 227 227 231 235 246 256 258 252 242 237 238 238 242 247 249 247 242 239 239 242 244 241 237 234 239 253 260 251 237 233 239 250 253 254 259 264 271 276 283 292 300 309 312 310 313 319 324 330 332 331 333 339 343 341 332 319
227 228 229 228 226 230 232 224 219 224 229 232 231 225 219 216 224 239 242 236 230 231 236 237 235 237 236 233 232 228 228 230 233 240 250 254 254 251 248 245 242 243 246 251 252 250 248 245 245 248 246 245 245 243 247 255 258 251 246 249 253 254 257 261 265 271 277 285 295 303 311 315 315 319 325 326 324 322 322 326 334 341 339 333 330
234 234 231 231 233 233 232 227 220 221 229 233 230 229 229 223 216 221 234 240 236 229 232 240 242 241 241 240 238 234 232 232 233 236 243 251 253 252 252 254 253 249 248 251 256 258 258 255 253 254 254 254 257 259 261 261 261 262 263 264 262 260 262 265 266 270 276 282 290 299 307 312 314 316 321 323 316 311 312 316 321 329 327 318 319
224 231 230 229 233 232 229 227 223 221 227 232 229 227 227 231 229 219 221 233 241 236 230 235 244 246 245 245 244 243 241 239 236 235 239 247 252 253 254 256 259 259 256 255 257 260 260 258 256 254 254 256 259 262 266 271 276 278 277 275 271 270 271 273 275 277 281 286 291 297 301 303 306 309 312 313 310 308 309 307 307 314 317 311 308
212 217 226 222 222 225 223 224 224 225 229 231 229 225 226 232 231 223 221 228 232 232 228 230 239 246 248 249 249 249 250 249 245 240 239 243 248 251 252 254 258 262 263 263 263 263 261 257 256 256 255 257 261 265 268 274 281 283 284 284 282 280 281 283 285 287 290 292 294 297 298 298 301 304 306 308 310 310 308 304 303 308 311 307 301
187 203 216 212 201 203 210 215 218 221 226 230 229 226 227 230 221 217 227 229 221 221 222 223 233 244 248 250 251 252 255 257 257 252 246 244 245 246 248 250 254 258 262 265 267 267 265 262 259 259 260 262 267 273 277 279 280 281 283 284 284 285 286 287 288 290 291 291 293 296 297 297 300 302 304 307 310 309 307 304 302 303 302 300 296
169 183 198 205 209 208 204 209 212 213 222 233 234 227 225 226 217 214 224 228 218 217 219 219 225 237 245 249 251 254 259 264 267 266 259 253 249 247 246 246 247 250 255 260 263 265 265 264 262 260 261 261 262 265 269 273 274 276 279 280 283 286 288 288 289 289 288 288 290 292 293 295 300 302 302 305 307 306 303 298 293 292 293 293 292
183 191 197 207 229 239 227 222 222 223 226 232 237 235 231 228 222 219 226 232 225 219 219 221 222 227 235 241 243 248 255 262 270 274 273 266 260 256 255 253 250 248 249 252 257 261 262 263 262 260 260 261 259 258 260 264 268 271 275 278 282 286 288 288 288 288 288 288 289 290 292 294 299 301 302 304 305 303 300 296 293 292 291 290 289
188 211 224 227 234 243 242 241 244 242 236 229 229 240 241 235 231 229 229 233 233 227 224 226 226 225 227 230 232 237 242 249 257 266 273 276 274 269 266 265 263 259 256 254 254 256 259 261 261 261 261 260 260 259 258 260 265 269 272 276 278 280 282 282 284 285 287 288 288 289 292 294 295 297 301 301 300 299 299 299 298 296 293 292 292
105 181 226 240 245 251 252 249 248 248 245 238 234 240 245 239 234 232 230 230 231 229 228 228 228 226 227 229 231 233 233 235 242 254 264 270 272 271 270 270 270 269 267 265 261 259 260 260 261 263 265 264 263 262 260 258 259 262 265 268 271 273 275 276 278 281 283 286 288 290 294 294 293 295 297 297 295 295 297 298 298 297 295 293 293
72 84 113 190 237 259 263 258 256 258 256 250 244 243 243 237 232 232 232 231 230 230 230 231 230 229 230 232 235 237 238 237 238 245 255 263 267 269 267 267 267 269 270 270 269 268 267 266 265 265 267 269 270 270 269 267 265 264 264 265 267 269 271 272 274 277 280 283 286 289 292 293 294 295 297 297 296 296 297 295 295 295 293 291 293
66 67 71 86 121 133 277 264 258 254 250 246 241 236 234 231 229 231 233 233 233 234 235 235 234 234 235 236 238 241 241 241 243 247 252 256 262 267 268 267 266 266 268 268 269 270 270 269 268 267 266 268 270 271 273 274 273 271 271 271 272 272 274 275 276 278 281 284 286 289 291 293 294 295 296 297 296 298 297 293 291 291 290 291 294
59 59 59 65 77 84 79 87 220 230 238 245 242 235 232 228 227 230 233 235 237 238 240 241 241 242 241 240 241 244 244 244 245 247 249 252 255 259 264 266 265 265 266 267 267 267 267 266 265 265 265 265 266 266 267 267 268 270 271 273 275 276 278 280 282 283 285 286 288 289 290 292 292 292 292 292 291 291 288 285 288 290 289 289 291
40 48 52 53 57 60 62 62 63 244 260 281 263 247 241 237 234 236 238 238 239 241 243 244 246 247 247 246 246 247 247 246 246 248 249 249 249 250 252 254 256 258 260 263 265 266 266 265 264 264 264 265 266 266 266 264 264 265 267 270 272 273 276 279 281 283 284 285 286 287 288 290 290 290 290 289 287 283 279 280 284 285 283 284 288
8 24 37 38 36 36 37 38 36 13 334 324 311 286 269 257 250 249 249 248 245 242 243 246 248 251 253 252 251 251 249 246 246 249 252 252 250 249 250 252 255 257 257 257 259 262 265 265 265 265 267 270 272 273 272 269 267 265 266 267 268 271 276 279 279 281 282 283 284 286 286 287 287 287 287 285 281 276 273 275 277 277 277 281 286
345 349 3 15 14 9 6 4 3 357 342 330 328 333 327 300 276 267 267 268 262 253 250 253 256 260 261 260 258 253 250 249 250 252 257 260 258 256 256 258 260 262 262 260 258 258 260 263 265 268 270 272 274 275 275 273 271 270 269 267 268 272 278 280 279 281 282 283 284 284 285 286 285 285 285 284 281 276 273 272 273 272 272 276 279
335 335 339 344 344 344 347 346 342 335 329 324 322 329 335 330 316 300 291 290 286 279 273 271 273 276 275 274 271 262 256 255 257 258 260 262 260 259 260 261 262 264 266 265 262 259 258 259 262 266 270 273 274 275 275 274 272 272 272 271 273 278 282 281 280 281 281 281 281 282 282 282 281 280 278 279 279 278 276 275 274 272 271 272 276
329 333 336 336 333 330 325 326 328 325 321 319 317 317 319 319 321 320 315 308 304 303 299 294 294 294 290 286 282 274 269 266 266 265 264 262 260 261 262 263 264 265 265 265 264 263 262 261 262 264 269 274 276 277 276 274 272 271 272 274 278 281 282 281 281 280 278 277 278 278 278 278 277 277 276 276 277 276 275 275 276 276 275 274 275
332 333 335 333 330 327 320 316 314 313 313 313 311 312 313 314 316 320 322 320 317 316 314 309 305 302 296 289 282 279 278 274 269 266 263 261 262 264 265 266 266 265 264 263 263 265 267 266 264 264 266 269 273 275 276 276 273 271 273 276 279 281 281 279 277 276 276 276 276 276 277 277 278 280 281 283 283 281 277 274 274 276 278 277 276
334 333 332 331 329 326 320 316 311 306 305 308 308 308 309 311 315 318 320 322 323 324 325 321 315 311 306 294 285 285 283 277 271 267 262 259 259 259 260 263 265 264 263 261 261 263 264 262 260 260 261 264 268 271 273 274 273 272 272 273 274 275 274 273 273 274 274 275 275 277 279 281 283 285 288 290 291 287 281 274 271 271 274 277 278
336 335 333 331 331 329 325 322 316 308 302 304 307 310 310 310 312 315 319 326 328 328 330 330 324 320 318 312 304 297 289 286 288 285 277 270 264 258 254 256 262 267 267 265 263 262 260 257 256 257 258 261 265 267 269 269 269 269 270 269 267 266 265 265 267 269 271 273 275 278 282 285 287 289 290 291 289 287 283 278 273 268 267 269 272
336 334 333 332 334 337 335 332 327 321 314 310 312 319 323 320 316 318 324 328 327 323 320 315 307 299 294 289 283 279 280 285 291 295 295 290 284 274 263 258 259 263 267 268 267 264 262 259 257 257 257 258 259 261 263 263 264 265 266 264 263 262 261 261 263 265 268 272 276 279 283 287 288 289 289 287 285 285 286 285 282 276 270 265 264
328 327 327 330 334 337 336 334 331 329 327 320 315 318 322 317 308 303 302 304 307 309 305 295 286 277 269 264 266 272 281 287 291 296 299 298 295 291 281 271 266 265 265 266 267 266 265 264 260 258 258 257 257 258 260 262 263 265 265 263 260 260 260 261 264 265 267 270 273 277 281 283 284 286 288 287 286 286 287 287 285 283 280 274 268
324 323 324 325 327 328 325 321 316 310 305 297 292 289 287 286 282 277 274 276 281 282 277 269 264 263 263 265 269 277 285 291 295 298 298 296 295 294 290 286 281 275 270 269 269 268 267 266 264 261 260 261 262 262 263 265 266 267 269 267 264 261 260 261 262 264 265 266 270 275 279 280 282 285 288 288 286 286 287 287 286 285 285 279 273
316 317 319 320 319 313 303 296 291 289 287 285 281 278 272 269 269 269 264 261 263 269 273 272 268 267 267 270 277 285 288 291 294 294 293 292 292 290 288 287 285 281 277 275 274 272 269 268 266 265 265 266 267 267 268 268 269 270 272 273 271 269 267 267 266 266 266 268 271 274 278 280 281 283 284 284 283 284 286 286 285 286 284 278 273
315 316 317 317 316 309 301 297 296 296 295 292 289 286 281 276 272 271 269 265 261 262 266 267 267 268 270 273 278 284 285 286 288 290 290 290 290 288 286 285 284 282 279 275 273 272 272 271 271 270 269 269 270 270 271 271 272 272 273 273 272 273 274 275 274 273 273 273 273 276 279 280 281 281 280 279 281 282 282 280 280 280 279 275 273
313 312 310 308 306 304 303 302 300 298 296 295 294 293 293 290 286 284 284 283 279 275 272 270 270 271 272 273 276 278 280 285 290 290 288 286 284 285 287 288 287 284 279 275 273 272 271 272 273 273 272 271 271 272 273 274 274 274 274 274 273 273 275 278 280 281 281 279 278 280 282 282 281 280 278 278 280 280 277 275 274 275 275 274 273
304 305 305 305 304 305 307 308 306 302 299 297 296 297 298 297 294 291 290 291 291 290 286 283 280 277 273 273 277 282 287 290 288 284 283 284 283 285 288 289 288 285 281 278 276 275 273 273 274 274 274 273 273 273 274 275 276 277 277 277 276 275 276 279 281 282 282 282 283 284 285 286 285 282 279 278 277 275 272 270 269 271 274 275 274
298 299 303 306 309 310 310 310 311 311 309 306 304 302 302 301 299 296 293 291 291 290 289 288 286 284 281 279 280 286 290 288 283 282 286 288 288 288 290 289 286 283 282 280 280 280 280 279 278 278 278 277 276 276 274 275 276 277 277 278 278 277 276 275 274 274 275 277 280 284 288 289 286 279 275 272 270 268 267 266 267 268 271 273 274
292 293 295 301 306 306 304 302 303 305 307 307 305 302 301 301 300 298 297 296 296 295 294 293 291 290 290 288 283 279 277 277 281 285 289 291 293 293 291 287 284 282 281 281 282 283 284 283 283 283 283 283 284 283 281 278 277 275 275 276 276 277 275 272 270 269 269 271 275 283 288 288 282 276 273 272 270 268 267 267 266 267 270 273 275
293 293 293 293 293 293 293 292 291 291 292 292 291 292 294 295 295 295 296 297 297 296 294 292 290 289 289 288 284 281 279 279 280 282 284 288 294 294 288 284 284 283 282 282 283 284 284 285 284 285 285 286 288 290 290 288 284 280 277 275 273 273 272 270 269 269 269 269 273 279 281 281 278 276 275 275 274 272 271 270 268 267 270 272 274
296 296 298 298 295 291 289 288 288 288 288 288 288 288 289 289 288 288 290 291 290 289 289 289 291 292 292 290 288 288 287 285 284 285 285 287 288 286 281 279 282 284 284 283 283 283 283 284 284 285 286 287 289 292 295 296 295 292 286 282 278 275 273 271 270 269 269 269 271 272 272 275 278 279 278 278 277 276 274 273 271 269 270 273 274
296 298 301 301 299 297 293 290 289 288 288 290 291 291 291 290 287 284 284 285 287 289 292 295 298 297 295 294 294 294 292 289 286 283 281 279 278 276 274 277 282 286 286 284 283 283 284 285 287 290 291 290 291 294 297 299 302 301 297 293 289 285 282 279 273 268 266 267 268 269 271 274 277 277 274 274 275 275 275 276 275 273 274 275 275
299 301 302 300 297 296 294 294 293 292 291 292 291 291 292 293 292 288 284 281 279 281 286 291 296 297 296 297 298 299 298 296 291 282 276 275 276 275 275 278 280 282 283 282 281 282 285 287 290 294 296 295 295 297 300 303 305 305 303 301 297 294 293 290 279 269 267 266 265 266 268 269 270 271 271 271 271 272 273 276 277 276 275 275 275
297 299 301 300 297 294 293 294 295 295 294 293 292 290 288 288 290 291 289 286 283 281 280 279 279 282 288 294 296 293 289 286 284 282 281 281 278 275 273 272 272 274 276 278 280 282 286 288 290 292 294 295 294 296 300 303 305 303 301 298 295 293 292 288 280 274 269 264 261 262 264 265 267 270 271 271 270 271 274 276 277 277 277 278 279
295 296 298 298 296 293 292 292 294 295 295 294 292 290 287 284 284 286 287 287 287 287 286 282 277 272 271 274 280 284 283 279 275 275 275 273 271 269 268 268 270 273 276 279 281 283 284 286 288 290 289 285 283 282 285 288 292 293 291 288 285 285 285 284 281 276 267 259 259 264 265 266 269 270 270 271 272 272 274 275 276 277 278 279 280
293 294 295 296 294 293 291 291 292 293 294 292 290 288 286 283 281 281 281 282 283 283 285 285 284 281 276 271 268 270 271 268 266 268 272 272 270 269 268 269 271 275 277 277 278 279 279 278 277 277 276 275 275 275 276 278 281 284 285 284 283 282 281 280 283 284 277 267 266 268 266 267 271 272 271 270 269 269 270 271 272 275 278 280 283
295 295 296 296 295 294 291 290 291 291 290 290 290 289 287 285 282 280 279 279 280 281 281 281 283 285 284 282 278 275 270 266 265 269 272 272 271 269 269 269 270 273 275 276 276 277 277 274 270 268 268 270 272 273 275 276 277 278 280 282 284 285 285 285 292 301 298 279 268 269 269 269 270 270 270 271 271 271 272 272 271 273 276 280 283
297 297 296 296 294 292 290 289 289 289 289 289 288 288 288 287 285 282 279 277 277 278 278 279 279 280 280 280 281 279 274 269 266 266 268 268 269 270 270 269 268 269 272 275 275 276 276 275 274 273 273 273 273 275 276 277 277 277 277 278 280 283 285 287 293 300 296 265 247 257 263 264 264 265 266 270 274 276 277 275 275 275 276 276 277
296 295 295 293 292 290 289 288 287 287 287 287 288 288 287 286 284 282 280 278 275 274 274 276 277 276 275 274 272 269 267 266 267 267 266 266 266 266 265 265 267 271 273 274 275 275 276 276 277 278 277 277 277 277 276 277 277 276 276 276 276 278 280 283 287 291 290 283 278 273 261 252 252 256 260 263 267 269 271 273 276 277 277 276 275
295 293 290 288 287 288 289 288 287 286 285 285 285 284 283 282 281 280 280 280 279 277 275 276 277 276 275 274 272 270 269 271 273 272 268 263 260 260 262 267 272 275 276 275 275 275 276 277 278 278 277 277 277 277 277 276 275 275 274 274 273 274 276 278 281 284 285 286 287 288 285 275 268 268 269 269 267 267 269 272 274 276 277 277 276
292 291 288 286 287 289 289 288 287 286 286 285 285 285 284 282 280 278 278 279 280 279 278 276 275 275 275 276 275 274 271 270 270 268 265 262 261 263 268 274 277 277 276 276 276 277 278 279 279 279 278 278 278 278 278 277 275 274 273 273 273 273 275 276 278 279 281 282 282 283 286 288 286 284 283 280 276 274 272 271 270 271 274 275 275
290 290 289 289 288 288 288 288 288 288 287 287 287 288 287 285 281 278 276 276 277 280 281 280 277 275 275 277 277 274 270 267 266 265 264 266 268 270 272 275 276 276 276 278 279 280 281 281 280 280 281 281 280 279 278 277 277 275 273 271 271 272 273 275 277 279 281 283 281 280 282 286 287 286 284 281 278 276 274 269 265 265 267 268 268
295 293 292 292 290 290 290 291 291 290 289 288 288 287 287 286 285 281 277 274 275 277 280 282 281 277 273 274 275 273 269 266 266 266 268 270 271 271 271 273 275 276 279 282 283 284 285 285 284 284 284 285 284 283 282 281 280 279 276 274 272 272 272 274 277 279 281 283 283 282 282 284 286 286 285 282 277 273 270 267 265 263 262 262 262
300 298 297 295 294 293 293 293 293 291 290 289 289 287 285 285 284 282 278 276 275 276 278 281 281 277 272 271 271 268 262 260 262 265 268 269 271 272 274 277 279 281 284 286 286 287 289 290 290 289 288 288 288 287 286 285 284 283 282 279 276 275 274 275 277 280 282 283 283 283 282 282 282 282 282 280 274 267 263 260 259 258 258 258 260
302 300 300 300 300 299 298 297 296 294 293 291 290 288 286 285 285 284 282 279 278 279 282 281 275 268 264 263 261 256 253 254 260 265 268 270 274 278 281 283 285 286 288 289 290 291 293 295 295 292 290 289 289 288 287 287 286 285 284 282 279 277 276 276 277 280 281 282 282 282 280 279 276 275 274 271 266 261 257 254 253 253 254 255 258
308 306 305 305 304 303 302 301 301 300 299 297 295 291 289 289 288 285 283 281 280 280 278 272 262 254 253 255 255 255 259 266 271 273 275 278 282 284 286 289 291 291 292 292 293 294 296 296 295 291 288 287 288 288 287 286 285 283 283 281 279 277 276 276 276 277 277 276 276 275 273 270 267 264 262 259 254 252 251 250 249 250 252 255 258